SCP
-0 0 -0 -0 0 0 0 0 0 0 0 0 0 0 0 0 0 0 0 0 0 0 0 1 1 1 0 0 0 0 0 0 0 0 0 0 0 0 0 0 0 0 0 0 0 0 0 0 0
0 0 0 0 0 0 0 0 0 0 -0 0 0 0 0 0 0 0 0 0 0 0 0 1 1 1 1 1 1 1 0 0 0 0 0 0 0 0 0 0 0 0 0 0 0 0 0 0 0
0 0 0 0 0 0 0 0 -0 0 0 0 0 0 0 0 0 0 0 0 0 0 0 0 1 1 1 1 1 1 1 0 0 0 0 0 0 0 0 0 0 0 0 0 0 0 0 0 0
0 0 0 0 0 0 0 0 0 0 0 0 0 0 0 0 0 0 0 0 0 0 0 0 1 1 2 1 1 1 1 0 0 0 0 0 0 0 0 0 0 0 0 0 0 0 0 0 0
0 0 0 0 0 0 0 0 0 0 0 0 0 0 0 0 0 0 0 0 0 0 0 1 1 1 1 1 1 0 0 1 1 0 0 0 0 0 0 0 0 0 0 0 0 0 0 0 0
0 0 0 0 0 0 0 0 0 0 0 0 0 0 0 0 0 0 0 0 0 0 1 1 1 1 1 1 1 1 1 1 0 0 0 0 0 0 0 0 0 0 0 0 0 0 0 0 0
0 0 0 0 0 0 0 -0 0 0 0 0 0 0 0 0 0 0 0 0 0 0 0 0 1 1 1 1 1 2 1 0 0 0 0 0 0 0 0 0 0 0 0 0 0 0 0 0 0
0 0 0 0 0 0 0 -0 0 0 0 0 0 0 0 0 0 0 0 0 0 0 0 0 0 0 1 1 1 1 1 0 0 0 0 0 0 0 0 0 0 0 0 0 0 0 0 0 0
0 0 0 0 0 0 0 0 0 0 0 0 0 0 0 0 0 0 0 0 0 0 0 0 0 0 0 0 0 1 0 0 0 0 0 0 0 0 0 0 0 0 0 -0 0 0 0 0 0
0 0 0 0 0 0 0 0 0 0 0 0 0 0 0 0 0 0 0 0 0 0 0 0 0 0 0 0 0 0 0 0 0 0 0 0 0 0 0 0 0 0 0 0 -0 0 0 0 0
0 0 0 0 0 0 -0 -0 0 0 0 0 0 0 0 0 0 0 0 0 0 0 0 0 0 0 0 0 0 0 0 0 0 0 0 0 0 0 0 0 0 0 0 0 0 0 0 0 0
0 0 0 0 0 0 -0 0 0 0 0 0 0 0 0 0 0 0 0 0 0 0 0 0 0 0 0 0 0 0 0 0 0 0 0 0 0 0 0 0 0 0 0 0 0 0 0 0 0
0 0 0 0 0 0 0 0 0 0 0 0 0 0 0 0 0 0 0 0 0 0 0 0 0 0 0 0 0 0 0 0 0 0 0 0 0 0 0 0 0 0 0 0 0 0 0 0 0
0 0 0 0 0 0 0 -0 0 -0 0 0 0 0 0 0 0 0 0 0 0 0 0 0 0 0 0 0 0 0 0 0 0 0 0 0 0 0 0 0 0 0 0 0 0 0 0 0 0
0 0 0 0 -0 -0 -0 -0 -0 -0 0 0 0 0 0 0 0 0 0 0 0 0 0 0 0 0 0 0 0 0 0 0 0 0 0 0 0 0 0 0 0 0 0 0 0 0 0 0 0
0 0 0 -0 0 0 0 0 0 -0 0 0 0 0 0 0 0 0 0 0 0 0 0 0 0 0 0 0 0 0 0 0 0 0 0 0 0 0 0 0 0 0 0 0 -0 -0 0 0 0
0 0 0 -0 -0 -0 0 -0 -0 -0 0 -0 0 0 0 0 0 0 0 0 0 0 0 0 0 0 0 0 0 0 0 0 0 0 0 0 0 0 0 0 0 0 0 0 -0 0 0 0 0
0 0 0 -0 -0 0 -0 -0 0 0 0 0 0 0 0 0 0 0 0 0 0 0 0 0 0 0 0 0 0 0 0 0 0 0 0 0 0 0 0 0 0 0 0 -0 -0 0 0 0 0
0 0 0 -0 0 0 -0 0 -0 -0 0 0 0 0 0 0 0 0 0 0 0 0 0 0 0 0 0 0 0 0 0 0 0 0 0 0 0 0 0 -0 0 0 0 0 -0 0 0 0 0
0 0 0 0 0 0 0 -0 -0 0 -0 0 0 0 0 0 0 0 0 0 0 0 0 0 0 0 0 0 0 0 0 0 0 0 0 0 0 0 0 -0 0 0 -0 -0 0 0 0 0 0
0 -0 -0 -0 0 -0 0 -0 0 -0 0 0 0 0 0 0 0 0 0 0 0 0 0 0 0 0 0 0 0 0 0 0 0 0 0 0 0 0 0 0 -0 -0 0 -0 0 0 0 0 0
-0 0 0 0 0 -0 0 0 0 0 0 0 0 0 0 0 0 0 0 0 0 0 0 0 0 0 0 0 0 0 0 0 0 0 0 0 0 0 -0 0 0 0 -0 -0 0 0 0 0 0
0 0 0 -0 0 0 -0 0 0 0 -0 -0 0 0 0 0 0 0 0 0 0 0 0 0 0 0 0 0 0 0 0 0 0 0 0 0 0 -0 0 0 0 -0 0 0 0 0 0 0 0
0 0 0 0 0 -0 -0 0 0 0 0 0 0 0 0 0 0 0 0 0 0 0 0 0 0 0 0 0 0 0 0 0 0 0 0 0 0 -0 -0 -0 -0 0 0 0 0 0 0 0 0
0 0 0 0 0 -0 -0 0 -0 -0 -0 0 0 0 0 0 0 0 0 0 0 0 0 0 0 0 0 0 0 0 0 0 0 0 0 0 0 -0 0 -0 -0 0 0 0 0 0 0 0 0
-0 0 0 0 0 0 0 0 -0 -0 0 -0 0 -0 0 0 0 0 0 0 0 0 0 0 0 0 0 0 0 0 0 0 0 0 0 0 0 -0 0 -0 -0 0 0 0 0 0 0 0 0
0 -0 -0 0 0 0 0 0 0 0 0 0 0 0 0 0 0 0 0 0 0 0 0 0 0 0 0 0 0 0 0 0 0 0 0 0 0 0 0 0 -0 0 0 0 0 0 0 0 0
-0 0 0 0 -0 0 0 0 0 0 0 0 0 0 0 0 0 0 0 0 0 -0 0 0 -0 -0 -0 0 0 0 0 0 0 0 0 0 0 0 0 0 0 0 0 0 0 0 0 0 0
0 0 0 0 0 0 0 0 -0 0 0 -0 -0 0 0 0 0 0 0 -0 -0 -0 -0 -0 -0 -0 0 0 0 0 0 0 0 0 0 0 0 0 0 0 0 0 0 0 0 0 0 0 0
0 0 0 0 0 0 0 0 0 0 0 -0 -0 0 0 0 -0 -0 -0 -0 -0 -0 -0 -0 0 -0 0 0 0 0 0 0 0 0 0 0 0 0 0 0 0 0 0 0 0 0 0 0 0
Wind_Speed_500mb
9 9 7 5 4 6 6 12 8 14 7 9 9 14 16 5 7 7 35 30 29 24 23 23 18 15 17 16 18 20 23 24 24 25 24 24 23 23 25 28 30 29 28 24 19 24 25 24 23
10 12 3 1 3 1 9 9 10 10 23 16 46 44 14 3 15 28 45 36 26 16 16 15 17 16 16 17 21 24 27 30 29 29 27 28 31 31 27 29 33 30 27 28 25 21 26 27 26
13 12 3 6 6 9 9 11 9 25 23 22 12 9 19 17 24 27 24 32 24 16 8 11 17 17 18 21 24 29 32 34 31 31 34 35 34 35 35 33 32 35 34 31 27 27 24 31 29
12 6 10 5 19 16 11 24 27 11 17 20 22 14 13 10 31 29 29 26 19 18 12 16 20 20 21 22 29 32 31 31 33 38 40 40 42 42 40 37 39 39 39 38 35 34 30 29 37
17 5 3 8 13 13 13 28 18 8 9 5 12 7 11 41 25 36 34 27 25 28 21 23 24 22 24 29 31 30 29 28 30 35 40 42 45 46 45 44 43 41 42 40 38 36 38 32 36
7 3 2 9 13 11 12 19 12 20 7 17 17 27 20 32 36 38 27 31 33 26 21 26 24 26 24 28 30 30 33 31 29 29 33 38 42 45 47 47 48 49 49 48 44 42 39 38 39
8 5 10 9 23 18 3 30 24 18 19 3 32 15 18 48 41 39 32 34 33 21 21 27 24 21 28 30 28 30 35 33 28 31 34 30 30 36 41 48 52 49 49 49 50 47 45 44 43
14 9 9 9 13 31 8 43 47 20 21 20 40 17 15 57 47 40 38 28 17 19 23 25 25 25 30 30 26 29 33 25 26 30 35 37 35 36 31 32 36 35 39 43 44 44 47 47 46
18 4 16 13 14 22 46 9 49 29 20 19 22 24 24 46 52 51 46 33 33 37 30 30 31 33 28 21 29 32 25 25 29 33 36 39 39 31 29 27 29 28 29 30 39 43 47 47 47
19 11 27 28 22 21 47 19 42 15 31 13 6 22 21 55 65 59 47 40 46 42 40 38 35 24 20 23 31 26 25 31 33 33 33 39 36 30 26 25 29 29 26 27 33 41 43 46 49
19 28 40 46 51 52 50 54 56 15 11 37 24 38 42 60 66 55 41 36 38 46 48 40 31 22 20 29 30 25 26 32 32 28 36 43 30 26 23 23 21 24 32 29 26 35 44 46 49
15 36 53 66 70 58 40 63 33 32 36 44 29 36 50 63 63 51 45 49 42 47 52 45 33 24 25 34 27 19 18 22 31 40 45 39 31 29 22 23 24 25 24 29 28 31 38 46 39
30 45 62 66 68 66 70 48 46 36 53 37 29 48 56 60 53 46 44 45 46 52 49 38 28 23 28 28 21 18 20 21 26 31 33 34 35 33 24 25 23 22 25 28 28 30 37 39 30
43 40 46 55 57 64 39 50 29 50 52 55 48 51 53 58 54 57 60 57 57 55 49 36 25 24 29 23 20 24 25 28 29 28 28 35 37 33 30 25 24 22 23 27 31 31 40 37 31
53 28 31 30 45 47 45 32 19 55 58 51 56 51 52 56 57 62 74 70 66 54 44 31 23 21 22 23 22 24 24 24 27 27 26 32 37 34 29 27 24 20 23 28 33 31 37 37 34
13 10 14 27 28 53 23 44 28 62 61 54 56 54 55 59 62 67 71 67 67 56 45 29 20 15 16 13 20 22 25 24 24 28 28 27 29 32 34 30 25 22 22 26 36 34 40 39 41
8 26 27 30 24 25 15 34 24 62 64 60 57 53 60 65 66 67 73 72 65 55 40 24 14 11 7 9 15 23 25 24 19 24 28 24 24 28 30 26 20 20 19 26 38 37 40 42 41
22 13 11 33 33 16 22 25 37 60 49 54 48 49 58 59 67 68 78 70 58 47 29 18 13 6 4 8 18 22 19 20 22 27 29 28 20 23 29 25 20 20 17 30 43 38 40 38 33
19 13 18 40 38 13 17 29 44 43 23 31 53 62 60 41 47 56 74 66 55 39 24 18 12 2 2 8 14 14 21 25 25 28 28 26 17 21 22 21 19 15 14 24 41 38 40 38 29
25 25 31 43 36 10 28 34 43 20 15 40 53 60 47 30 39 65 77 67 54 34 23 17 9 4 3 6 13 20 24 22 23 24 21 26 19 12 22 18 14 17 18 30 40 38 40 30 31
34 36 43 39 34 16 19 27 25 22 11 14 29 37 31 43 74 79 74 61 46 32 22 17 10 4 2 8 15 19 25 26 20 13 15 20 11 7 17 15 19 22 25 31 36 37 36 37 42
36 39 38 40 25 15 14 11 11 14 14 9 33 32 26 56 71 81 72 59 44 28 23 16 11 4 5 9 15 22 28 23 15 7 12 12 5 5 17 17 24 23 28 31 34 34 36 34 43
40 29 35 34 28 15 42 4 16 12 12 17 18 18 46 67 85 82 72 57 37 27 24 16 9 6 4 5 16 19 19 22 17 12 12 9 2 8 21 21 27 26 26 29 34 36 37 33 39
48 23 17 16 16 14 32 8 25 10 15 12 2 35 56 64 70 72 61 47 35 29 24 14 10 11 8 6 15 13 15 22 21 14 10 13 4 12 24 25 28 26 27 29 33 34 34 39 37
24 15 6 6 12 18 19 12 35 15 18 17 16 41 55 66 71 66 63 51 39 37 27 13 11 8 13 11 11 6 14 18 21 19 15 7 5 16 28 30 29 26 27 30 29 34 33 38 39
45 27 12 13 8 8 14 14 22 19 17 31 49 57 65 69 66 69 62 50 39 38 27 13 15 12 16 10 11 6 12 15 18 22 14 12 10 17 26 27 28 28 31 31 28 31 29 32 33
16 38 30 7 5 4 9 12 17 1 11 20 34 51 61 68 69 70 60 48 41 37 25 15 20 18 17 7 4 7 12 15 17 19 15 12 10 14 16 30 32 30 30 29 28 27 30 34 39
49 12 12 1 22 11 8 6 10 6 16 18 21 34 54 64 68 66 60 50 39 31 26 22 23 20 13 4 2 7 9 15 15 20 12 14 13 13 18 23 33 32 32 32 31 31 33 34 36
14 34 12 12 13 15 7 16 15 24 23 29 30 50 70 70 72 68 59 47 39 35 33 26 28 22 16 6 9 3 6 11 13 17 13 14 11 15 19 26 29 34 36 36 34 33 32 34 32
29 17 34 15 10 5 12 16 10 16 31 33 33 55 71 74 75 67 58 49 46 45 39 30 28 22 16 5 9 7 3 5 10 17 19 12 13 21 24 28 29 36 36 35 32 34 30 31 34
Wind_Direction_500mb
169 174 202 266 25 65 250 260 239 314 256 243 151 145 146 95 166 212 152 163 166 185 197 211 220 267 279 285 307 304 297 283 274 270 269 267 259 264 270 273 275 280 282 280 267 253 246 228 243
199 193 218 282 106 190 266 244 304 274 273 176 122 125 109 224 150 150 164 183 206 201 213 246 261 269 271 273 292 296 296 290 282 278 281 273 279 279 272 265 262 265 272 273 271 257 248 233 230
199 217 273 155 181 213 220 251 246 299 251 214 129 134 140 164 170 171 181 184 190 208 235 254 232 225 238 267 286 293 295 291 282 272 280 279 278 281 279 271 261 261 266 264 261 267 252 237 223
201 219 246 190 236 257 229 273 242 270 306 240 151 75 96 170 166 180 175 177 199 201 206 225 228 240 255 287 301 297 295 294 282 275 278 278 276 279 276 270 268 266 265 262 257 257 263 247 227
206 246 259 263 254 268 274 278 257 300 316 58 119 144 124 159 183 171 173 186 197 189 196 212 234 258 289 299 301 304 308 300 287 278 277 276 274 275 271 269 268 266 266 261 256 253 252 248 238
211 238 342 263 269 272 311 309 304 322 251 131 111 136 165 190 190 170 185 194 203 211 214 227 252 265 267 284 289 294 306 307 299 290 287 281 275 271 269 269 268 265 262 258 253 250 248 244 231
169 91 230 261 286 299 183 276 282 265 280 284 164 140 183 181 195 189 201 199 206 213 229 238 261 253 262 272 280 292 301 299 297 300 298 306 302 284 275 269 265 261 257 253 249 246 243 240 232
198 138 274 242 280 287 288 316 319 271 253 270 173 168 185 196 195 192 197 209 216 225 239 243 239 235 240 256 277 293 298 294 293 294 300 309 311 301 286 279 266 262 260 250 248 244 235 233 232
213 126 258 242 231 261 292 298 296 309 313 230 225 206 237 193 187 187 193 207 220 222 227 230 226 229 242 266 290 299 282 282 283 290 296 304 314 311 300 279 263 255 262 253 238 232 232 225 228
183 174 241 240 255 265 277 253 285 299 316 312 248 212 197 180 188 191 199 206 212 220 218 222 224 231 254 295 311 296 275 272 280 287 293 299 305 303 298 287 264 249 253 260 245 226 225 222 225
211 226 245 265 261 264 272 285 282 277 291 287 200 180 179 183 189 202 214 213 217 217 217 215 215 228 276 309 317 313 292 277 279 283 289 294 283 287 308 288 276 264 250 257 242 226 220 217 222
256 249 246 258 267 271 268 273 268 260 279 288 253 205 189 189 196 206 203 209 219 205 205 209 225 257 299 316 320 327 324 301 288 283 284 283 277 275 292 292 275 265 254 247 243 231 221 214 220
247 245 249 255 264 269 272 268 260 257 281 281 228 196 197 203 206 207 206 207 213 206 208 218 238 278 302 313 329 325 326 315 305 298 280 277 271 272 280 295 279 275 263 247 234 224 213 211 208
247 256 259 269 272 269 274 273 253 275 282 285 212 203 205 206 208 203 203 205 211 210 217 225 246 279 300 325 332 326 318 313 315 309 292 274 270 275 265 283 275 271 274 249 227 218 207 205 208
265 270 276 271 274 267 279 277 253 275 278 271 209 211 207 207 204 213 211 212 219 215 218 223 251 277 309 326 324 319 317 321 322 321 289 271 266 271 268 274 273 276 273 242 218 208 207 207 203
298 288 263 261 262 270 235 269 276 281 274 248 218 219 214 214 215 221 213 214 209 215 214 225 255 285 311 312 314 307 311 310 316 321 311 280 266 260 258 263 270 271 266 237 208 203 201 197 196
242 255 256 273 256 266 215 271 271 282 268 242 225 226 236 235 223 216 212 208 207 215 211 232 238 273 311 307 307 305 306 305 307 328 337 303 267 253 254 256 259 266 260 226 203 201 196 196 195
222 232 244 256 252 266 275 267 266 263 251 222 221 242 241 245 235 214 200 201 204 207 211 226 228 265 314 306 308 312 314 315 302 313 328 329 288 245 245 242 248 255 258 209 199 198 197 203 197
244 246 256 260 263 268 260 266 267 268 248 226 229 242 248 252 236 218 196 194 199 200 205 206 219 216 50 324 324 320 321 312 305 307 313 322 317 241 240 220 225 236 220 192 191 195 201 204 191
231 243 255 273 266 244 274 284 267 262 235 228 235 241 245 220 193 186 186 193 200 194 196 198 191 134 41 335 331 326 329 325 315 305 301 326 309 273 219 212 213 210 188 174 179 188 190 195 181
223 227 242 255 282 259 268 282 275 285 266 242 256 259 233 206 176 176 185 190 191 184 191 181 173 131 137 360 338 337 326 327 321 303 300 328 322 279 188 199 193 183 175 177 179 180 188 182 177
238 221 234 246 264 258 146 267 287 246 267 286 299 306 218 191 186 181 183 185 179 181 174 174 164 182 148 11 352 355 348 3 354 331 328 347 340 214 182 174 169 171 176 179 185 187 187 185 179
233 226 238 247 253 253 277 255 260 266 276 274 268 211 186 183 184 182 185 177 176 178 171 169 169 173 137 333 350 353 9 21 14 340 327 328 313 187 173 162 159 172 173 178 184 188 189 187 186
230 240 243 259 245 238 251 177 275 219 224 262 13 183 178 181 180 183 176 175 172 171 171 164 166 147 154 282 340 1 23 32 17 6 354 343 216 185 179 168 167 160 175 176 180 185 187 185 193
200 183 250 269 214 228 231 216 248 226 230 213 174 176 181 180 179 177 175 174 173 174 172 169 157 154 181 239 323 345 2 16 18 10 2 33 107 166 183 180 170 162 167 169 172 184 188 191 189
222 204 191 187 205 221 207 221 255 231 270 222 177 171 175 178 182 178 177 177 176 175 177 169 151 167 191 238 322 7 20 18 16 15 18 43 116 134 171 179 172 162 164 167 168 181 190 189 187
202 211 212 215 294 132 215 273 329 54 111 125 145 154 169 179 180 178 178 180 174 176 182 181 175 182 194 242 324 56 34 31 25 20 44 65 121 130 159 175 172 165 171 174 177 180 181 186 184
218 157 164 312 216 221 274 225 221 160 160 153 151 165 170 176 178 177 179 177 178 180 176 177 187 189 193 258 137 51 27 25 31 28 56 65 92 124 149 163 177 172 170 178 184 183 176 176 179
177 211 209 170 170 192 209 254 210 200 182 166 177 173 174 178 179 178 180 179 181 181 181 177 180 184 191 248 174 165 11 19 47 39 61 77 120 111 133 139 158 169 170 175 173 176 172 178 185
214 186 195 208 219 193 164 254 288 198 167 166 168 174 179 183 180 179 179 180 183 182 182 183 184 192 201 193 185 193 22 30 59 58 43 109 113 119 128 133 148 156 160 162 164 163 170 180 177
Wind_Speed_850mb
9 9 7 5 4 6 6 12 8 14 7 9 9 14 16 5 7 7 35 30 29 24 23 23 18 15 17 16 18 20 23 24 24 25 24 24 23 23 25 28 30 29 28 24 19 24 25 24 23
10 12 3 1 3 1 9 9 10 10 23 16 46 44 14 3 15 28 45 36 26 16 16 15 17 16 16 17 21 24 27 30 29 29 27 28 31 31 27 29 33 30 27 28 25 21 26 27 26
13 12 3 6 6 9 9 11 9 25 23 22 12 9 19 17 24 27 24 32 24 16 8 11 17 17 18 21 24 29 32 34 31 31 34 35 34 35 35 33 32 35 34 31 27 27 24 31 29
12 6 10 5 19 16 11 24 27 11 17 20 22 14 13 10 31 29 29 26 19 18 12 16 20 20 21 22 29 32 31 31 33 38 40 40 42 42 40 37 39 39 39 38 35 34 30 29 37
17 5 3 8 13 13 13 28 18 8 9 5 12 7 11 41 25 36 34 27 25 28 21 23 24 22 24 29 31 30 29 28 30 35 40 42 45 46 45 44 43 41 42 40 38 36 38 32 36
7 3 2 9 13 11 12 19 12 20 7 17 17 27 20 32 36 38 27 31 33 26 21 26 24 26 24 28 30 30 33 31 29 29 33 38 42 45 47 47 48 49 49 48 44 42 39 38 39
8 5 10 9 23 18 3 30 24 18 19 3 32 15 18 48 41 39 32 34 33 21 21 27 24 21 28 30 28 30 35 33 28 31 34 30 30 36 41 48 52 49 49 49 50 47 45 44 43
14 9 9 9 13 31 8 43 47 20 21 20 40 17 15 57 47 40 38 28 17 19 23 25 25 25 30 30 26 29 33 25 26 30 35 37 35 36 31 32 36 35 39 43 44 44 47 47 46
18 4 16 13 14 22 46 9 49 29 20 19 22 24 24 46 52 51 46 33 33 37 30 30 31 33 28 21 29 32 25 25 29 33 36 39 39 31 29 27 29 28 29 30 39 43 47 47 47
19 11 27 28 22 21 47 19 42 15 31 13 6 22 21 55 65 59 47 40 46 42 40 38 35 24 20 23 31 26 25 31 33 33 33 39 36 30 26 25 29 29 26 27 33 41 43 46 49
19 28 40 46 51 52 50 54 56 15 11 37 24 38 42 60 66 55 41 36 38 46 48 40 31 22 20 29 30 25 26 32 32 28 36 43 30 26 23 23 21 24 32 29 26 35 44 46 49
15 36 53 66 70 58 40 63 33 32 36 44 29 36 50 63 63 51 45 49 42 47 52 45 33 24 25 34 27 19 18 22 31 40 45 39 31 29 22 23 24 25 24 29 28 31 38 46 39
30 45 62 66 68 66 70 48 46 36 53 37 29 48 56 60 53 46 44 45 46 52 49 38 28 23 28 28 21 18 20 21 26 31 33 34 35 33 24 25 23 22 25 28 28 30 37 39 30
43 40 46 55 57 64 39 50 29 50 52 55 48 51 53 58 54 57 60 57 57 55 49 36 25 24 29 23 20 24 25 28 29 28 28 35 37 33 30 25 24 22 23 27 31 31 40 37 31
53 28 31 30 45 47 45 32 19 55 58 51 56 51 52 56 57 62 74 70 66 54 44 31 23 21 22 23 22 24 24 24 27 27 26 32 37 34 29 27 24 20 23 28 33 31 37 37 34
13 10 14 27 28 53 23 44 28 62 61 54 56 54 55 59 62 67 71 67 67 56 45 29 20 15 16 13 20 22 25 24 24 28 28 27 29 32 34 30 25 22 22 26 36 34 40 39 41
8 26 27 30 24 25 15 34 24 62 64 60 57 53 60 65 66 67 73 72 65 55 40 24 14 11 7 9 15 23 25 24 19 24 28 24 24 28 30 26 20 20 19 26 38 37 40 42 41
22 13 11 33 33 16 22 25 37 60 49 54 48 49 58 59 67 68 78 70 58 47 29 18 13 6 4 8 18 22 19 20 22 27 29 28 20 23 29 25 20 20 17 30 43 38 40 38 33
19 13 18 40 38 13 17 29 44 43 23 31 53 62 60 41 47 56 74 66 55 39 24 18 12 2 2 8 14 14 21 25 25 28 28 26 17 21 22 21 19 15 14 24 41 38 40 38 29
25 25 31 43 36 10 28 34 43 20 15 40 53 60 47 30 39 65 77 67 54 34 23 17 9 4 3 6 13 20 24 22 23 24 21 26 19 12 22 18 14 17 18 30 40 38 40 30 31
34 36 43 39 34 16 19 27 25 22 11 14 29 37 31 43 74 79 74 61 46 32 22 17 10 4 2 8 15 19 25 26 20 13 15 20 11 7 17 15 19 22 25 31 36 37 36 37 42
36 39 38 40 25 15 14 11 11 14 14 9 33 32 26 56 71 81 72 59 44 28 23 16 11 4 5 9 15 22 28 23 15 7 12 12 5 5 17 17 24 23 28 31 34 34 36 34 43
40 29 35 34 28 15 42 4 16 12 12 17 18 18 46 67 85 82 72 57 37 27 24 16 9 6 4 5 16 19 19 22 17 12 12 9 2 8 21 21 27 26 26 29 34 36 37 33 39
48 23 17 16 16 14 32 8 25 10 15 12 2 35 56 64 70 72 61 47 35 29 24 14 10 11 8 6 15 13 15 22 21 14 10 13 4 12 24 25 28 26 27 29 33 34 34 39 37
24 15 6 6 12 18 19 12 35 15 18 17 16 41 55 66 71 66 63 51 39 37 27 13 11 8 13 11 11 6 14 18 21 19 15 7 5 16 28 30 29 26 27 30 29 34 33 38 39
45 27 12 13 8 8 14 14 22 19 17 31 49 57 65 69 66 69 62 50 39 38 27 13 15 12 16 10 11 6 12 15 18 22 14 12 10 17 26 27 28 28 31 31 28 31 29 32 33
16 38 30 7 5 4 9 12 17 1 11 20 34 51 61 68 69 70 60 48 41 37 25 15 20 18 17 7 4 7 12 15 17 19 15 12 10 14 16 30 32 30 30 29 28 27 30 34 39
49 12 12 1 22 11 8 6 10 6 16 18 21 34 54 64 68 66 60 50 39 31 26 22 23 20 13 4 2 7 9 15 15 20 12 14 13 13 18 23 33 32 32 32 31 31 33 34 36
14 34 12 12 13 15 7 16 15 24 23 29 30 50 70 70 72 68 59 47 39 35 33 26 28 22 16 6 9 3 6 11 13 17 13 14 11 15 19 26 29 34 36 36 34 33 32 34 32
29 17 34 15 10 5 12 16 10 16 31 33 33 55 71 74 75 67 58 49 46 45 39 30 28 22 16 5 9 7 3 5 10 17 19 12 13 21 24 28 29 36 36 35 32 34 30 31 34
Wind_Direction_850mb
169 174 202 266 25 65 250 260 239 314 256 243 151 145 146 95 166 212 152 163 166 185 197 211 220 267 279 285 307 304 297 283 274 270 269 267 259 264 270 273 275 280 282 280 267 253 246 228 243
199 193 218 282 106 190 266 244 304 274 273 176 122 125 109 224 150 150 164 183 206 201 213 246 261 269 271 273 292 296 296 290 282 278 281 273 279 279 272 265 262 265 272 273 271 257 248 233 230
199 217 273 155 181 213 220 251 246 299 251 214 129 134 140 164 170 171 181 184 190 208 235 254 232 225 238 267 286 293 295 291 282 272 280 279 278 281 279 271 261 261 266 264 261 267 252 237 223
201 219 246 190 236 257 229 273 242 270 306 240 151 75 96 170 166 180 175 177 199 201 206 225 228 240 255 287 301 297 295 294 282 275 278 278 276 279 276 270 268 266 265 262 257 257 263 247 227
206 246 259 263 254 268 274 278 257 300 316 58 119 144 124 159 183 171 173 186 197 189 196 212 234 258 289 299 301 304 308 300 287 278 277 276 274 275 271 269 268 266 266 261 256 253 252 248 238
211 238 342 263 269 272 311 309 304 322 251 131 111 136 165 190 190 170 185 194 203 211 214 227 252 265 267 284 289 294 306 307 299 290 287 281 275 271 269 269 268 265 262 258 253 250 248 244 231
169 91 230 261 286 299 183 276 282 265 280 284 164 140 183 181 195 189 201 199 206 213 229 238 261 253 262 272 280 292 301 299 297 300 298 306 302 284 275 269 265 261 257 253 249 246 243 240 232
198 138 274 242 280 287 288 316 319 271 253 270 173 168 185 196 195 192 197 209 216 225 239 243 239 235 240 256 277 293 298 294 293 294 300 309 311 301 286 279 266 262 260 250 248 244 235 233 232
213 126 258 242 231 261 292 298 296 309 313 230 225 206 237 193 187 187 193 207 220 222 227 230 226 229 242 266 290 299 282 282 283 290 296 304 314 311 300 279 263 255 262 253 238 232 232 225 228
183 174 241 240 255 265 277 253 285 299 316 312 248 212 197 180 188 191 199 206 212 220 218 222 224 231 254 295 311 296 275 272 280 287 293 299 305 303 298 287 264 249 253 260 245 226 225 222 225
211 226 245 265 261 264 272 285 282 277 291 287 200 180 179 183 189 202 214 213 217 217 217 215 215 228 276 309 317 313 292 277 279 283 289 294 283 287 308 288 276 264 250 257 242 226 220 217 222
256 249 246 258 267 271 268 273 268 260 279 288 253 205 189 189 196 206 203 209 219 205 205 209 225 257 299 316 320 327 324 301 288 283 284 283 277 275 292 292 275 265 254 247 243 231 221 214 220
247 245 249 255 264 269 272 268 260 257 281 281 228 196 197 203 206 207 206 207 213 206 208 218 238 278 302 313 329 325 326 315 305 298 280 277 271 272 280 295 279 275 263 247 234 224 213 211 208
247 256 259 269 272 269 274 273 253 275 282 285 212 203 205 206 208 203 203 205 211 210 217 225 246 279 300 325 332 326 318 313 315 309 292 274 270 275 265 283 275 271 274 249 227 218 207 205 208
265 270 276 271 274 267 279 277 253 275 278 271 209 211 207 207 204 213 211 212 219 215 218 223 251 277 309 326 324 319 317 321 322 321 289 271 266 271 268 274 273 276 273 242 218 208 207 207 203
298 288 263 261 262 270 235 269 276 281 274 248 218 219 214 214 215 221 213 214 209 215 214 225 255 285 311 312 314 307 311 310 316 321 311 280 266 260 258 263 270 271 266 237 208 203 201 197 196
242 255 256 273 256 266 215 271 271 282 268 242 225 226 236 235 223 216 212 208 207 215 211 232 238 273 311 307 307 305 306 305 307 328 337 303 267 253 254 256 259 266 260 226 203 201 196 196 195
222 232 244 256 252 266 275 267 266 263 251 222 221 242 241 245 235 214 200 201 204 207 211 226 228 265 314 306 308 312 314 315 302 313 328 329 288 245 245 242 248 255 258 209 199 198 197 203 197
244 246 256 260 263 268 260 266 267 268 248 226 229 242 248 252 236 218 196 194 199 200 205 206 219 216 50 324 324 320 321 312 305 307 313 322 317 241 240 220 225 236 220 192 191 195 201 204 191
231 243 255 273 266 244 274 284 267 262 235 228 235 241 245 220 193 186 186 193 200 194 196 198 191 134 41 335 331 326 329 325 315 305 301 326 309 273 219 212 213 210 188 174 179 188 190 195 181
223 227 242 255 282 259 268 282 275 285 266 242 256 259 233 206 176 176 185 190 191 184 191 181 173 131 137 360 338 337 326 327 321 303 300 328 322 279 188 199 193 183 175 177 179 180 188 182 177
238 221 234 246 264 258 146 267 287 246 267 286 299 306 218 191 186 181 183 185 179 181 174 174 164 182 148 11 352 355 348 3 354 331 328 347 340 214 182 174 169 171 176 179 185 187 187 185 179
233 226 238 247 253 253 277 255 260 266 276 274 268 211 186 183 184 182 185 177 176 178 171 169 169 173 137 333 350 353 9 21 14 340 327 328 313 187 173 162 159 172 173 178 184 188 189 187 186
230 240 243 259 245 238 251 177 275 219 224 262 13 183 178 181 180 183 176 175 172 171 171 164 166 147 154 282 340 1 23 32 17 6 354 343 216 185 179 168 167 160 175 176 180 185 187 185 193
200 183 250 269 214 228 231 216 248 226 230 213 174 176 181 180 179 177 175 174 173 174 172 169 157 154 181 239 323 345 2 16 18 10 2 33 107 166 183 180 170 162 167 169 172 184 188 191 189
222 204 191 187 205 221 207 221 255 231 270 222 177 171 175 178 182 178 177 177 176 175 177 169 151 167 191 238 322 7 20 18 16 15 18 43 116 134 171 179 172 162 164 167 168 181 190 189 187
202 211 212 215 294 132 215 273 329 54 111 125 145 154 169 179 180 178 178 180 174 176 182 181 175 182 194 242 324 56 34 31 25 20 44 65 121 130 159 175 172 165 171 174 177 180 181 186 184
218 157 164 312 216 221 274 225 221 160 160 153 151 165 170 176 178 177 179 177 178 180 176 177 187 189 193 258 137 51 27 25 31 28 56 65 92 124 149 163 177 172 170 178 184 183 176 176 179
177 211 209 170 170 192 209 254 210 200 182 166 177 173 174 178 179 178 180 179 181 181 181 177 180 184 191 248 174 165 11 19 47 39 61 77 120 111 133 139 158 169 170 175 173 176 172 178 185
214 186 195 208 219 193 164 254 288 198 167 166 168 174 179 183 180 179 179 180 183 182 182 183 184 192 201 193 185 193 22 30 59 58 43 109 113 119 128 133 148 156 160 162 164 163 170 180 177